Regional Weather Roundup
Issued by NWS

Home | Current Version | Previous Version | Text Only | Print | Product List | Glossary On
Versions: 1 2 3 4 5 6 7 8 9 10 11 12 13 14 15 16 17 18 19 20 21 22 23 24 25 26 27 28 29 30 31 32 33 34 35 36 37 38 39 40 41 42 43 44 45 46 47 48 49 50
000
ASUS43 KLMK 271610
RWRKY
KENTUCKY REGIONAL WEATHER ROUNDUP
NATIONAL WEATHER SERVICE LOUISVILLE KY
1200 PM EDT SAT MAY 27 2017

NOTE "FAIR" INDICATES FEW OR NO CLOUDS BELOW 12,000 FEET
WITH NO SIGNIFICANT WEATHER AND/OR OBSTRUCTIONS TO VISIBILITY.

KYZ001>023-026-027-061>063-070>075-271700-
WESTERN AND SOUTH CENTRAL KENTUCKY

CITY           SKY/WX    TMP DP  RH WIND       PRES   REMARKS
PADUCAH        SUNNY     83  65  54 SW12      29.88S
HENDERSON      PTSUNNY   79  71  76 SW5       29.89R
OWENSBORO      MOSUNNY   80  70  71 S6        29.88S
HOPKINSVILLE   CLOUDY    75  69  81 NW10      29.92F
BOWLING GREEN  MOSUNNY   78  70  76 SE3       29.90F
GLASGOW        CLOUDY    75  67  74 SW6       29.94F
$$

KYZ024-025-028>034-038-045-046-053-271700-
NORTH CENTRAL KENTUCKY

CITY           SKY/WX    TMP DP  RH WIND       PRES   REMARKS
LOUISVILLE/SDF PTSUNNY   78  70  76 SW9       29.90R HAZE
LOUISVILLE/LOU CLOUDY    77  71  82 S9        29.90R
FORT KNOX      MOSUNNY   77  69  76 SW3       29.88F
$$

KYZ035>037-039>044-047>052-055>060-089>105-271700-
NORTHEAST KENTUCKY

CITY           SKY/WX    TMP DP  RH WIND       PRES   REMARKS
LEXINGTON      CLOUDY    76  67  73 SW7       29.91F
COVINGTON      CLOUDY    74  67  78 SW6       29.89R
FRANKFORT      CLOUDY    76  67  73 SW6       29.90S
$$

KYZ054-064>069-076>088-106>120-271700-
SOUTHEAST KENTUCKY

CITY           SKY/WX    TMP DP  RH WIND       PRES   REMARKS
JACKSON        CLOUDY    74  65  73 MISG      29.96S
LONDON         CLOUDY    74  63  68 SW10      29.98S
SOMERSET       CLOUDY    73  63  68 W9        29.97F
MIDDLESBORO    CLOUDY    78  64  63 SW6       30.00S
MONTICELLO     CLOUDY    76  68  76 SW12G18   29.98S
$$





USA.gov is the U.S. government's official web portal to all federal, state and local government web resources and services.